Total_Precipitation_Accumulation
0.05 0.10 0.23 0.19 0.15 0.13 0.12 0.12 0.13 0.16 0.18 0.20 0.21 0.22 0.22 0.21 0.19 0.19 0.17 0.20 0.28 0.37 0.44 0.47 0.43 0.38 0.34 0.26 0.15 0.06 0.04 0.04 0.04 0.04 0.05 0.08 0.10 0.10 0.08 0.07 0.08 0.09 0.13
0.05 0.09 0.23 0.21 0.19 0.17 0.17 0.16 0.13 0.14 0.16 0.19 0.23 0.24 0.24 0.22 0.22 0.17 0.19 0.24 0.30 0.33 0.36 0.39 0.30 0.24 0.21 0.15 0.07 0.03 0.02 0.02 0.02 0.01 0.01 0.03 0.06 0.08 0.08 0.07 0.07 0.09 0.12
0.06 0.12 0.21 0.21 0.21 0.21 0.19 0.15 0.12 0.12 0.17 0.22 0.25 0.25 0.26 0.25 0.20 0.20 0.23 0.25 0.27 0.29 0.27 0.24 0.16 0.10 0.08 0.05 0.03 0.03 0.03 0.02 0.01 0.01 0.03 0.04 0.05 0.08 0.08 0.07 0.09 0.11 0.12
0.08 0.15 0.18 0.23 0.24 0.24 0.21 0.17 0.15 0.15 0.19 0.24 0.27 0.28 0.29 0.26 0.19 0.22 0.26 0.24 0.25 0.24 0.17 0.13 0.10 0.08 0.05 0.03 0.02 0.03 0.02 0.02 0.01 0.02 0.04 0.05 0.06 0.11 0.12 0.11 0.12 0.12 0.12
0.11 0.17 0.22 0.26 0.29 0.29 0.25 0.21 0.19 0.19 0.23 0.28 0.29 0.31 0.31 0.30 0.26 0.26 0.25 0.21 0.19 0.17 0.12 0.10 0.07 0.06 0.04 0.03 0.02 0.02 0.02 0.01 0.01 0.02 0.04 0.05 0.08 0.15 0.16 0.13 0.13 0.13 0.13
0.18 0.23 0.31 0.34 0.37 0.35 0.31 0.27 0.25 0.24 0.27 0.30 0.32 0.33 0.34 0.36 0.36 0.33 0.25 0.17 0.13 0.11 0.09 0.09 0.05 0.04 0.04 0.03 0.02 0.01 0.01 0.01 0.01 0.02 0.03 0.04 0.08 0.17 0.17 0.14 0.14 0.16 0.18
0.23 0.32 0.39 0.43 0.47 0.44 0.39 0.35 0.32 0.32 0.34 0.33 0.31 0.35 0.40 0.40 0.39 0.37 0.25 0.15 0.10 0.08 0.07 0.08 0.06 0.04 0.04 0.03 0.02 0.01 0.01 0.00 0.01 0.02 0.03 0.04 0.10 0.20 0.19 0.16 0.17 0.18 0.19
0.29 0.34 0.44 0.49 0.47 0.49 0.49 0.43 0.39 0.39 0.40 0.40 0.38 0.44 0.49 0.46 0.37 0.32 0.24 0.14 0.10 0.08 0.07 0.07 0.08 0.06 0.05 0.05 0.03 0.02 0.01 0.00 0.01 0.03 0.03 0.05 0.10 0.18 0.17 0.13 0.13 0.14 0.15
0.48 0.49 0.52 0.52 0.48 0.47 0.44 0.41 0.41 0.44 0.42 0.40 0.41 0.45 0.47 0.47 0.37 0.29 0.19 0.14 0.10 0.09 0.09 0.09 0.08 0.07 0.07 0.06 0.05 0.03 0.01 0.00 0.01 0.02 0.02 0.04 0.08 0.13 0.12 0.10 0.10 0.10 0.11
0.77 0.70 0.63 0.62 0.55 0.48 0.43 0.41 0.40 0.41 0.39 0.38 0.36 0.31 0.30 0.29 0.29 0.27 0.17 0.13 0.11 0.11 0.11 0.09 0.08 0.08 0.06 0.04 0.03 0.02 0.01 0.01 0.01 0.01 0.02 0.02 0.04 0.07 0.06 0.07 0.07 0.08 0.10
1.05 0.91 0.80 0.76 0.70 0.60 0.54 0.47 0.44 0.42 0.37 0.34 0.31 0.25 0.24 0.27 0.25 0.21 0.12 0.11 0.11 0.10 0.09 0.08 0.08 0.07 0.04 0.02 0.02 0.01 0.01 0.00 0.01 0.01 0.01 0.01 0.02 0.04 0.06 0.08 0.08 0.08 0.09
1.15 1.04 0.93 0.87 0.80 0.69 0.59 0.53 0.49 0.43 0.37 0.31 0.26 0.27 0.24 0.24 0.25 0.20 0.14 0.11 0.11 0.09 0.09 0.08 0.08 0.06 0.03 0.01 0.00 0.01 0.00 0.00 0.01 0.01 0.01 0.01 0.02 0.04 0.06 0.08 0.07 0.07 0.08
1.27 1.23 1.10 1.00 0.92 0.81 0.70 0.60 0.55 0.47 0.42 0.35 0.28 0.27 0.24 0.25 0.27 0.24 0.19 0.14 0.13 0.09 0.08 0.08 0.07 0.04 0.02 0.01 0.01 0.01 0.00 0.00 0.00 0.00 0.00 0.00 0.01 0.03 0.06 0.08 0.08 0.08 0.08
1.32 1.35 1.20 1.10 0.99 0.90 0.78 0.67 0.60 0.53 0.45 0.38 0.32 0.27 0.26 0.27 0.24 0.20 0.18 0.16 0.15 0.11 0.09 0.07 0.05 0.03 0.02 0.02 0.01 0.01 0.01 0.00 0.00 0.00 0.00 0.00 0.01 0.02 0.05 0.08 0.09 0.10 0.12
1.31 1.32 1.32 1.19 1.08 0.92 0.85 0.78 0.66 0.55 0.45 0.40 0.37 0.31 0.26 0.24 0.23 0.22 0.18 0.17 0.14 0.13 0.12 0.10 0.07 0.05 0.04 0.02 0.02 0.01 0.01 0.01 0.00 0.00 0.00 0.00 0.00 0.01 0.03 0.06 0.11 0.15 0.19
1.24 1.26 1.30 1.31 1.24 1.07 0.86 0.80 0.74 0.59 0.51 0.48 0.44 0.35 0.30 0.27 0.25 0.25 0.22 0.20 0.16 0.12 0.11 0.10 0.08 0.07 0.05 0.04 0.02 0.02 0.01 0.01 0.01 0.01 0.01 0.01 0.01 0.01 0.01 0.04 0.11 0.18 0.25
1.26 1.23 1.30 1.32 1.39 1.26 1.04 0.89 0.84 0.69 0.58 0.51 0.45 0.46 0.43 0.37 0.32 0.28 0.27 0.23 0.18 0.16 0.14 0.12 0.12 0.10 0.08 0.06 0.04 0.03 0.02 0.02 0.02 0.01 0.01 0.01 0.01 0.01 0.01 0.04 0.10 0.17 0.26
1.41 1.27 1.31 1.33 1.43 1.42 1.24 1.06 0.92 0.83 0.71 0.57 0.47 0.48 0.53 0.48 0.43 0.39 0.36 0.31 0.28 0.25 0.21 0.17 0.15 0.14 0.11 0.10 0.08 0.06 0.04 0.03 0.03 0.02 0.02 0.02 0.02 0.02 0.02 0.02 0.06 0.12 0.19
1.48 1.39 1.35 1.32 1.38 1.46 1.45 1.33 1.16 1.01 0.84 0.72 0.58 0.52 0.54 0.54 0.50 0.44 0.41 0.43 0.45 0.40 0.33 0.28 0.20 0.18 0.16 0.14 0.13 0.10 0.07 0.06 0.04 0.03 0.03 0.03 0.03 0.02 0.03 0.03 0.03 0.05 0.09
1.59 1.48 1.42 1.40 1.43 1.57 1.65 1.63 1.44 1.25 1.07 0.92 0.78 0.67 0.64 0.61 0.59 0.55 0.48 0.49 0.52 0.51 0.44 0.39 0.32 0.27 0.22 0.21 0.18 0.12 0.09 0.07 0.06 0.05 0.04 0.04 0.04 0.03 0.04 0.04 0.04 0.04 0.04
1.62 1.57 1.42 1.46 1.47 1.59 1.70 1.68 1.55 1.34 1.28 1.16 1.01 0.93 0.83 0.76 0.71 0.71 0.66 0.64 0.64 0.61 0.56 0.53 0.50 0.41 0.33 0.32 0.29 0.18 0.11 0.08 0.06 0.05 0.05 0.04 0.04 0.05 0.05 0.06 0.07 0.08 0.09
1.43 1.58 1.49 1.49 1.55 1.50 1.55 1.74 1.84 1.75 1.58 1.44 1.29 1.14 1.03 0.92 0.85 0.80 0.78 0.78 0.74 0.72 0.70 0.65 0.63 0.57 0.49 0.45 0.40 0.35 0.22 0.12 0.07 0.06 0.06 0.05 0.05 0.06 0.07 0.08 0.09 0.10 0.12
1.34 1.54 1.56 1.56 1.63 1.56 1.63 1.98 2.19 2.18 1.90 1.67 1.49 1.31 1.18 1.12 1.07 0.98 0.88 0.84 0.81 0.78 0.74 0.71 0.74 0.74 0.67 0.59 0.53 0.53 0.41 0.24 0.16 0.11 0.09 0.09 0.10 0.10 0.11 0.12 0.12 0.13 0.13
1.28 1.46 1.52 1.64 1.71 1.73 1.77 1.92 1.98 1.89 1.72 1.53 1.52 1.47 1.39 1.31 1.21 1.15 1.08 1.00 0.93 0.87 0.80 0.80 0.81 0.82 0.84 0.77 0.67 0.59 0.53 0.41 0.38 0.27 0.18 0.17 0.19 0.18 0.18 0.17 0.16 0.16 0.15
1.19 1.39 1.43 1.51 1.60 1.68 1.67 1.77 1.95 1.83 1.67 1.58 1.55 1.50 1.42 1.40 1.34 1.25 1.18 1.16 1.10 1.05 1.00 0.99 0.97 0.93 0.91 0.88 0.82 0.75 0.72 0.62 0.53 0.49 0.36 0.28 0.28 0.25 0.23 0.21 0.19 0.17 0.17
1.01 1.27 1.37 1.47 1.55 1.63 1.61 1.64 1.82 1.75 1.58 1.43 1.38 1.39 1.32 1.29 1.24 1.18 1.15 1.13 1.11 1.07 1.05 1.03 1.03 1.01 0.97 0.91 0.86 0.80 0.79 0.73 0.63 0.61 0.55 0.40 0.36 0.33 0.33 0.32 0.29 0.26 0.23